Ketchikan, AK

11:15 PM AKDT on September 22, 2018 (GMT -0800)
Ketchikan International

Weather History for PAKT - June, 2018

Change the Weather History Date:

Sunday, June 10, 2018

  Actual Average Record
Temperature  
Mean Temperature 52 °F -  
Max Temperature 60 °F 60 °F 84 °F (1969)
Min Temperature 46 °F 45 °F 39 °F (1999)
Degree Days  
Heating Degree Days 14    
Growing Degree Days 2 (Base 50)    
Moisture  
Dew Point 44 °F    
Average Humidity 76    
Maximum Humidity 93    
Minimum Humidity 49    
Precipitation  
Precipitation 0.01 in - - ()
Sea Level Pressure  
Sea Level Pressure 29.99 in    
Wind  
Wind Speed 5 mph (NW)    
Max Wind Speed 15 mph    
Max Gust Speed -    
Visibility 10 miles    
Events Rain    
Averages and records for this station are not official NWS values.
T = Trace of Precipitation, MM = Missing Value Source: NWS Daily Summary

Daily Weather History Graph

Daily Weather History Graph

Search for Another Location

Airport or City:

Astronomy

Jun. 10, 2018 Rise Set
Actual Time 4:06 AM AKDT 9:26 PM AKDT
Civil Twilight 3:07 AM AKDT 10:25 PM AKDT
Nautical Twilight 1:18 AM AKDT 12:14 AM AKDT
Astronomical Twilight Sun does not set Sun does not set
Moon 2:59 AM AKDT (6/10) 5:17 PM AKDT (6/10)
Length of Visible Light 19h 17m
Length of Day
17h 20m
Waning Crescent, 12% of the Moon is Illuminated
Jun 10
Waning Crescent
Jun 13
New
Jun 20
First Quarter
Jun 27
Full
Jul 5
Last Quarter

Hourly Weather History & Observations

Time (AKDT) Temp. Windchill Dew Point Humidity Pressure Visibility Wind Dir Wind Speed Gust Speed Precip Events Conditions
12:53 AM 46.9 °F - 44.1 °F 90% 29.93 in 10.0 mi SSE 3.5 mph - N/A   Overcast
1:53 AM 46.0 °F 44.8 °F 43.0 °F 89% 29.93 in 10.0 mi South 3.5 mph - N/A   Overcast
2:53 AM 48.0 °F - 45.0 °F 89% 29.94 in 10.0 mi Calm Calm - N/A   Overcast
3:35 AM 48.0 °F - 44.1 °F 86% 29.93 in 10.0 mi Calm Calm - N/A   Overcast
3:53 AM 48.0 °F - 44.1 °F 86% 29.94 in 10.0 mi SSE 3.5 mph - N/A   Overcast
4:48 AM 46.4 °F - 44.6 °F 93% 29.94 in 10.0 mi Calm Calm - N/A   Overcast
4:53 AM 46.9 °F - 44.1 °F 90% 29.95 in 10.0 mi Calm Calm - N/A   Overcast
5:34 AM 46.9 °F - 45.0 °F 93% 29.95 in 10.0 mi Calm Calm - N/A   Overcast
5:53 AM 48.0 °F - 45.0 °F 89% 29.96 in 10.0 mi NW 3.5 mph - N/A   Overcast
6:03 AM 48.2 °F - 44.6 °F 87% 29.96 in 10.0 mi WNW 3.5 mph - N/A   Overcast
6:53 AM 48.2 °F - 46.4 °F 93% 29.97 in 10.0 mi NW 4.6 mph - N/A   Overcast
7:53 AM 51.8 °F - 44.6 °F 76% 29.97 in 10.0 mi North 8.1 mph - N/A   Overcast
8:53 AM 53.6 °F - 42.8 °F 67% 29.98 in 10.0 mi NNW 8.1 mph - N/A   Mostly Cloudy
9:53 AM 55.4 °F - 41.0 °F 58% 29.98 in 10.0 mi North 4.6 mph - N/A   Scattered Clouds
10:53 AM 57.2 °F - 41.0 °F 55% 29.98 in 10.0 mi NNW 10.4 mph - N/A   Scattered Clouds
11:53 AM 57.0 °F - 37.9 °F 49% 29.99 in 10.0 mi NNW 6.9 mph - N/A   Scattered Clouds
12:53 PM 57.9 °F - 42.1 °F 56% 29.99 in 10.0 mi NW 8.1 mph - N/A   Mostly Cloudy
1:53 PM 55.9 °F - 42.1 °F 60% 30.00 in 10.0 mi NNW 15.0 mph - N/A   Mostly Cloudy
2:53 PM 57.0 °F - 44.1 °F 62% 30.01 in 10.0 mi North 10.4 mph - 0.00 in   Mostly Cloudy
3:53 PM 52.0 °F - 45.0 °F 77% 30.02 in 9.0 mi NNW 11.5 mph - 0.00 in Rain Light Rain
4:53 PM 53.1 °F - 44.1 °F 71% 30.02 in 10.0 mi NNW 5.8 mph - 0.01 in   Overcast
5:53 PM 55.0 °F - 45.0 °F 69% 30.02 in 10.0 mi North 8.1 mph - 0.00 in   Overcast
6:53 PM 53.1 °F - 45.0 °F 74% 30.03 in 10.0 mi WNW 6.9 mph - N/A   Overcast
7:53 PM 53.1 °F - 43.0 °F 69% 30.04 in 10.0 mi NW 8.1 mph - N/A   Overcast
8:53 PM 52.0 °F - 43.0 °F 71% 30.04 in 10.0 mi NNW 9.2 mph - N/A   Overcast
9:53 PM 51.1 °F - 43.0 °F 74% 30.05 in 10.0 mi NNW 9.2 mph - N/A   Overcast
10:53 PM 51.1 °F - 43.0 °F 74% 30.05 in 10.0 mi NNW 8.1 mph - N/A   Overcast
11:53 PM 46.9 °F - 42.1 °F 83% 30.06 in 10.0 mi West 3.5 mph - N/A   Clear